星链-36078(STARLINK-36078)

导读

STARLINK-36078是美国于2025年12月11日发射的星链卫星,隶属于SpaceX公司的星链互联网星座项目。星链计划旨在通过大规模低轨卫星组网,为全球提供高速低延迟宽带互联网服务,该卫星入轨后将进一步拓展星链星座的全球覆盖范围与服务能力。

Basic Information
目录编号:
67050
目录名称:
STARLINK-36078
国际标识:
2025-294W
轨道中心:
EARTH
卫星名称:
星链-36078
卫星全名:
星链-36078(STARLINK-36078)
卫星状态:
在轨 (已飞行267 天)
发射日期:
2025-12-11 UTC
国别 :
美国 (US)
星等 :
--
Orbit Information
数据来源 国际轨道数据 AOE轨道数据
星历时间 2026-09-04T00:23:21+0800
11小时前
查看轨道信息
2026-08-30T18:00:00+0800
4天前
查看轨道信息
半长轴 6861.177km 6861.167km
偏心率 0.000133 0.0001068
轨道倾角 43.003° 43.002°
近地点辐角 255.909° 244.186°
升交点赤经 112.624° 136.722°
平近点角 104.161° 27.311°
近地点 482.127km 482.297km
远地点 483.953km 483.763km
周期 94.267分钟 94.266分钟
每日圈数 15.275832 15.275865
Detailed Information
固有亮度:
5
最大亮度:
2.5
卫星平台:
Starlink V1.0
覆盖范围:
全球
运营商:
太空探索技术公司
运营商所在国:
美国
制造商(研发单位):
太空探索技术公司
制造商所在国:
美国
使用方式:
暂无
Satellite Introduction
Starlink 计划是 SpaceX 推出的全球卫星互联网项目,通过发射低轨道卫星,为全球尤其是偏远地区提供高速、低延迟的互联网服务。自 2019 年起,Starlink 已部署数千颗卫星,旨在缩小全球数字鸿沟,推动互联网普及。该项目还为军事、航空等行业提供通信支持,带来广泛经济效益。
2D Orbit Map
3D Orbit Map
Orbit Altitude Analysis Chart
Orbit Inclination Analysis Chart
Orbit Comprehensive Analysis Chart
View Comprehensive Chart
Conjunction Data List
Event ID Objects TCA Miss Dist (km) Collision Risk Probability Collision Risk Index (CRI) Action
CDM_260904-221606-328006-705021
2026-09-04T
22:16:24+0000
1.124 km
极远距离
1.387869E-5 中风险 0.58
CDM_260905-100206-328006-705021
2026-09-05T
10:02:31+0000
1.951 km
极远距离
2.407684E-6 低风险 0.43
CDM_260904-204206-328006-705021
2026-09-04T
20:42:15+0000
1.994 km
极远距离
2.279165E-6 低风险 0.42
CDM_260905-082806-328006-705021
2026-09-05T
08:28:22+0000
2.362 km
极远距离
1.56219E-6 低风险 0.39